Tracking 29487 objects as of 11-Sep-2024
HD Live streaming from Space Station
objects crossing your sky now

TITAN 3C TRANSTAGE DEB

Track TITAN 3C TRANSTAGE DEB now!
10-day predictions


NORAD ID: 1859
Int'l Code: 1965-082ES
Perigee: 691.7 km
Apogee: 788.4 km
Inclination: 32.1 °
Period: 99.5 minutes
Semi major axis: 7111 km
RCS: 0.1777 m2 (medium)
Launch date: October 15, 1965
Source: United States (US)
Launch site: AIR FORCE EASTERN TEST RANGE (AFETR)

Note: This is SATELLITE DEBRIS
Your satellite tracking list
Your tracking list is empty




NASA's NSSDC Master Catalog

Two Line Element Set (TLE):
1 01859U 65082ES  24254.51917745  .00001133  00000-0  28443-3 0  9992
2 01859  32.1262 296.2490 0068018  77.5644 283.2598 14.47788885 93525
Source of the keplerian elements: AFSPC